Tiempo cada hora Cayos Cochinos

Hoy, 25 Enero, Lunes

Tiempo Temperatura Precipitaciones Viento Presión Humedad
00:00 +23°C° 0 mm 6 mps 759 mmHg 98%
01:00 +22°C° 0 mm 5 mps 759 mmHg 98%
02:00 +22°C° 0 mm 5 mps 758 mmHg 98%
03:00 +22°C° 0 mm 5 mps 758 mmHg 98%
04:00 +21°C° 0 mm 5 mps 758 mmHg 98%
05:00 +21°C° 0 mm 5 mps 759 mmHg 97%
06:00 +21°C° 0 mm 4 mps 759 mmHg 97%
07:00 +23°C° 0 mm 4 mps 759 mmHg 87%
08:00 +26°C° 0 mm 4 mps 759 mmHg 77%
09:00 +28°C° 0 mm 3 mps 760 mmHg 68%
10:00 +30°C° 0 mm 4 mps 759 mmHg 59%
11:00 +33°C° 0 mm 4 mps 759 mmHg 50%
12:00 +35°C° 0 mm 5 mps 758 mmHg 41%
13:00 +35°C° 0 mm 5 mps 758 mmHg 43%
14:00 +35°C° 0 mm 6 mps 757 mmHg 46%
15:00 +35°C° 0 mm 6 mps 756 mmHg 48%
16:00 +32°C° 0 mm 7 mps 756 mmHg 61%
17:00 +29°C° 0 mm 7 mps 757 mmHg 75%
18:00 +27°C° 0 mm 8 mps 757 mmHg 88%
19:00 +26°C° 0 mm 7 mps 757 mmHg 88%
20:00 +24°C° 0 mm 7 mps 757 mmHg 88%
21:00 +24°C° 0 mm 7 mps 758 mmHg 88%
22:00 +23°C° 0 mm 6 mps 758 mmHg 87%
23:00 +23°C° 0 mm 6 mps 758 mmHg 86%

Mañana, 26 Enero, Martes

Tiempo Temperatura Precipitaciones Viento Presión Humedad
00:00 +22°C° 0 mm 5 mps 758 mmHg 85%
01:00 +22°C° 0 mm 5 mps 757 mmHg 86%
02:00 +22°C° 0 mm 5 mps 757 mmHg 87%
03:00 +22°C° 0 mm 5 mps 757 mmHg 89%
04:00 +22°C° 0 mm 5 mps 757 mmHg 90%
05:00 +21°C° 0 mm 4 mps 758 mmHg 92%
06:00 +21°C° 0 mm 4 mps 758 mmHg 94%
07:00 +23°C° 0 mm 4 mps 758 mmHg 84%
08:00 +27°C° 0 mm 4 mps 759 mmHg 74%
09:00 +29°C° 0 mm 3 mps 759 mmHg 64%
10:00 +32°C° 0 mm 4 mps 759 mmHg 57%
11:00 +34°C° 0 mm 5 mps 758 mmHg 50%
12:00 +35°C° 0 mm 5 mps 758 mmHg 43%
13:00 +35°C° 0 mm 6 mps 757 mmHg 46%
14:00 +35°C° 0 mm 7 mps 757 mmHg 49%
15:00 +35°C° 0 mm 7 mps 756 mmHg 51%
16:00 +32°C° 0 mm 8 mps 756 mmHg 64%
17:00 +29°C° 0 mm 8 mps 756 mmHg 77%
18:00 +27°C° 0 mm 8 mps 757 mmHg 90%
19:00 +26°C° 0 mm 8 mps 757 mmHg 90%
20:00 +26°C° 0 mm 7 mps 757 mmHg 91%
21:00 +24°C° 0 mm 7 mps 758 mmHg 91%
22:00 +24°C° 0 mm 6 mps 758 mmHg 88%
23:00 +23°C° 0 mm 5 mps 758 mmHg 85%

Pasado mañana, 27 Enero, Miércoles

Tiempo Temperatura Precipitaciones Viento Presión Humedad
00:00 +23°C° 0 mm 5 mps 758 mmHg 83%
01:00 +23°C° 0 mm 4 mps 758 mmHg 83%
02:00 +22°C° 0 mm 4 mps 758 mmHg 84%
03:00 +22°C° 0 mm 4 mps 757 mmHg 84%
04:00 +21°C° 0 mm 4 mps 758 mmHg 85%
05:00 +21°C° 0 mm 4 mps 758 mmHg 87%
06:00 +21°C° 0 mm 4 mps 759 mmHg 88%
07:00 +24°C° 0 mm 3 mps 759 mmHg 79%
08:00 +27°C° 0 mm 3 mps 760 mmHg 71%
09:00 +29°C° 0 mm 3 mps 760 mmHg 62%
10:00 +31°C° 0 mm 3 mps 760 mmHg 52%
11:00 +34°C° 0 mm 4 mps 760 mmHg 43%
12:00 +36°C° 0 mm 4 mps 759 mmHg 34%
13:00 +35°C° 0 mm 5 mps 759 mmHg 39%
14:00 +34°C° 0 mm 5 mps 758 mmHg 44%
15:00 +33°C° 0 mm 6 mps 758 mmHg 50%
16:00 +30°C° 0 mm 6 mps 758 mmHg 65%
17:00 +28°C° 0 mm 6 mps 758 mmHg 80%
18:00 +24°C° 0 mm 6 mps 759 mmHg 96%
19:00 +24°C° 0 mm 6 mps 759 mmHg 96%
20:00 +24°C° 0 mm 6 mps 760 mmHg 97%
21:00 +23°C° 0 mm 6 mps 761 mmHg 98%
22:00 +23°C° 0 mm 6 mps 761 mmHg 98%
23:00 +23°C° 0 mm 6 mps 761 mmHg 98%

28 Enero, Jueves

Tiempo Temperatura Precipitaciones Viento Presión Humedad
00:00 +22°C° 0 mm 5 mps 761 mmHg 98%
01:00 +22°C° 0 mm 5 mps 761 mmHg 98%
02:00 +22°C° 0 mm 4 mps 761 mmHg 98%
03:00 +21°C° 0 mm 3 mps 760 mmHg 98%
04:00 +21°C° 0.2 mm 3 mps 761 mmHg 97%
05:00 +21°C° 0.2 mm 3 mps 761 mmHg 96%
06:00 +21°C° 0.2 mm 3 mps 761 mmHg 95%
07:00 +24°C° 0.4 mm 2 mps 762 mmHg 93%
08:00 +25°C° 0.4 mm 2 mps 762 mmHg 91%
09:00 +27°C° 0.4 mm 2 mps 763 mmHg 88%
10:00 +27°C° 0.4 mm 2 mps 762 mmHg 90%
11:00 +27°C° 0.4 mm 3 mps 762 mmHg 91%
12:00 +27°C° 0.4 mm 4 mps 762 mmHg 92%
13:00 +28°C° 0.2 mm 5 mps 761 mmHg 83%
14:00 +29°C° 0.2 mm 5 mps 761 mmHg 75%
15:00 +30°C° 0.2 mm 6 mps 760 mmHg 66%
16:00 +28°C° 0.1 mm 6 mps 761 mmHg 75%
17:00 +27°C° 0.1 mm 5 mps 761 mmHg 84%
18:00 +25°C° 0.1 mm 5 mps 761 mmHg 93%
19:00 +25°C° 0.1 mm 5 mps 762 mmHg 95%
20:00 +23°C° 0.1 mm 5 mps 762 mmHg 96%
21:00 +23°C° 0.1 mm 5 mps 763 mmHg 98%
22:00 +23°C° 0.1 mm 5 mps 762 mmHg 98%
23:00 +22°C° 0.1 mm 5 mps 762 mmHg 97%

29 Enero, Viernes

Tiempo Temperatura Precipitaciones Viento Presión Humedad
00:00 +22°C° 0.1 mm 5 mps 762 mmHg 97%
01:00 +22°C° 0.1 mm 5 mps 762 mmHg 97%
02:00 +22°C° 0.1 mm 4 mps 762 mmHg 97%
03:00 +21°C° 0.1 mm 4 mps 761 mmHg 97%
04:00 +21°C° 0.1 mm 4 mps 761 mmHg 97%
05:00 +21°C° 0.1 mm 3 mps 762 mmHg 97%
06:00 +21°C° 0.1 mm 3 mps 762 mmHg 97%
07:00 +24°C° 0 mm 2 mps 762 mmHg 92%
08:00 +25°C° 0 mm 2 mps 762 mmHg 86%
09:00 +27°C° 0 mm 1 mps 763 mmHg 80%
10:00 +28°C° 0.1 mm 1 mps 762 mmHg 78%
11:00 +28°C° 0.1 mm 1 mps 762 mmHg 75%
12:00 +28°C° 0.1 mm 2 mps 761 mmHg 72%
13:00 +28°C° 0.5 mm 2 mps 761 mmHg 74%
14:00 +28°C° 0.5 mm 2 mps 760 mmHg 75%
15:00 +28°C° 0.5 mm 2 mps 760 mmHg 77%
16:00 +27°C° 1.3 mm 3 mps 760 mmHg 83%
17:00 +26°C° 1.3 mm 4 mps 760 mmHg 90%
18:00 +23°C° 1.3 mm 5 mps 760 mmHg 96%
19:00 +23°C° 1.9 mm 5 mps 761 mmHg 97%
20:00 +23°C° 1.9 mm 6 mps 761 mmHg 98%
21:00 +23°C° 1.9 mm 7 mps 761 mmHg 98%
22:00 +23°C° 1.9 mm 7 mps 761 mmHg 98%
23:00 +23°C° 1.9 mm 6 mps 761 mmHg 98%

30 Enero, Sábado

Tiempo Temperatura Precipitaciones Viento Presión Humedad
00:00 +23°C° 1.9 mm 6 mps 761 mmHg 98%
01:00 +23°C° 1.8 mm 7 mps 760 mmHg 99%
02:00 +23°C° 1.8 mm 7 mps 760 mmHg 99%
03:00 +23°C° 1.8 mm 7 mps 760 mmHg 99%
04:00 +23°C° 1.1 mm 7 mps 760 mmHg 99%
05:00 +23°C° 1.1 mm 7 mps 760 mmHg 98%
06:00 +23°C° 1.1 mm 7 mps 760 mmHg 98%
07:00 +24°C° 0.3 mm 7 mps 761 mmHg 97%
08:00 +24°C° 0.3 mm 7 mps 761 mmHg 95%
09:00 +26°C° 0.3 mm 6 mps 762 mmHg 94%
10:00 +27°C° 0.1 mm 6 mps 761 mmHg 84%
11:00 +29°C° 0.1 mm 6 mps 761 mmHg 75%
12:00 +30°C° 0.1 mm 6 mps 760 mmHg 65%
13:00 +30°C° 0 mm 6 mps 760 mmHg 65%
14:00 +30°C° 0 mm 6 mps 759 mmHg 64%
15:00 +30°C° 0 mm 6 mps 759 mmHg 63%
16:00 +28°C° 0.2 mm 5 mps 759 mmHg 74%
17:00 +26°C° 0.2 mm 5 mps 759 mmHg 85%
18:00 +23°C° 0.2 mm 5 mps 759 mmHg 95%
19:00 +23°C° 1 mm 5 mps 760 mmHg 96%
20:00 +23°C° 1 mm 5 mps 760 mmHg 97%
21:00 +22°C° 1 mm 5 mps 761 mmHg 98%
22:00 +22°C° 0.3 mm 4 mps 761 mmHg 98%
23:00 +22°C° 0.3 mm 3 mps 760 mmHg 98%
Mostrar más